| time (UTC) | temp F | wind direction | speed knots | gust knots | rain 1hr in | rain 24hr in | rain mn in | humidity % | barometer mb |
| 20260904190058 | 92 | 145 | 3.5 | 9.6 | 0.00 | 0.03 | 0.03 | 53 | 1012.1 |
| 20260904184557 | 92 | 142 | 2.6 | 7.8 | 0.00 | 0.03 | 0.03 | 54 | 1012.3 |
| 20260904183112 | 92 | 142 | 4.3 | 8.7 | 0.00 | 0.03 | 0.03 | 58 | 1012.4 |
| 20260904181555 | 91 | 135 | 5.2 | 11.3 | 0.00 | 0.03 | 0.03 | 57 | 1012.4 |
| 20260904180056 | 92 | 115 | 5.2 | 10.4 | 0.00 | 0.03 | 0.03 | 58 | 1012.6 |
| 20260904174554 | 92 | 125 | 3.5 | 9.6 | 0.00 | 0.03 | 0.03 | 58 | 1012.6 |
| 20260904173053 | 91 | 158 | 4.3 | 8.7 | 0.00 | 0.03 | 0.03 | 59 | 1012.7 |
| 20260904171551 | 92 | 136 | 2.6 | 8.7 | 0.00 | 0.03 | 0.03 | 58 | 1012.9 |
| 20260904170047 | 91 | 121 | 4.3 | 7.8 | 0.00 | 0.03 | 0.03 | 62 | 1013.0 |
| 20260904164546 | 91 | 151 | 3.5 | 7.8 | 0.00 | 0.03 | 0.03 | 60 | 1013.0 |
| 20260904163041 | 90 | 211 | 0.9 | 5.2 | 0.00 | 0.03 | 0.03 | 67 | 1012.9 |
| 20260904161541 | 89 | 233 | 2.6 | 6.1 | 0.00 | 0.03 | 0.03 | 67 | 1012.8 |
| 20260904160034 | 88 | 153 | 2.6 | 8.7 | 0.00 | 0.03 | 0.03 | 69 | 1012.9 |
| 20260904154531 | 87 | 229 | 3.5 | 7.0 | 0.00 | 0.03 | 0.03 | 71 | 1012.8 |
| 20260904153027 | 85 | 184 | 1.7 | 7.8 | 0.01 | 0.03 | 0.03 | 77 | 1012.8 |
| 20260904151526 | 82 | 144 | 2.6 | 6.1 | 0.01 | 0.03 | 0.03 | 83 | 1012.8 |
| 20260904150025 | 81 | 189 | 0.9 | 4.3 | 0.01 | 0.03 | 0.03 | 86 | 1012.7 |
| 20260904144515 | 80 | 161 | 3.5 | 7.0 | 0.01 | 0.03 | 0.03 | 89 | 1012.6 |
| 20260904143011 | 79 | 165 | 0.9 | 4.3 | 0.00 | 0.02 | 0.02 | 92 | 1012.5 |
| 20260904141511 | 79 | 149 | 1.7 | 5.2 | 0.00 | 0.02 | 0.02 | 92 | 1012.5 |
| 20260904140009 | 78 | 232 | 0.9 | 7.0 | 0.01 | 0.02 | 0.02 | 92 | 1012.5 |
| 20260904134517 | 78 | 159 | 0.9 | 3.5 | 0.02 | 0.02 | 0.02 | 92 | 1012.4 |
| 20260904133008 | 78 | 211 | 1.7 | 5.2 | 0.02 | 0.02 | 0.02 | 92 | 1012.3 |
| 20260904131509 | 78 | 225 | 0.9 | 3.5 | 0.02 | 0.02 | 0.02 | 91 | 1012.4 |
| 20260904130009 | 78 | 182 | 0.0 | 3.5 | 0.01 | 0.01 | 0.01 | 91 | 1012.5 |
| 20260904124505 | 78 | 134 | 0.9 | 4.3 | 0.00 | 0.00 | 0.00 | 90 | 1012.5 |
| 20260904123009 | 78 | 162 | 0.9 | 3.5 | 0.00 | 0.00 | 0.00 | 89 | 1012.5 |
| 20260904121501 | 79 | 44 | 1.7 | 3.5 | 0.00 | 0.00 | 0.00 | 88 | 1012.4 |
| 20260904120111 | 79 | 95 | 0.9 | 4.3 | 0.00 | 0.00 | 0.00 | 88 | 1012.2 |
| 20260904114555 | 79 | 81 | 1.7 | 6.1 | 0.00 | 0.00 | 0.00 | 87 | 1012.0 |
| 20260904113052 | 79 | 103 | 1.7 | 4.3 | 0.00 | 0.00 | 0.00 | 87 | 1011.5 |
| 20260904111549 | 79 | 173 | 0.9 | 6.1 | 0.00 | 0.00 | 0.00 | 86 | 1011.3 |
| 20260904110053 | 79 | 175 | 3.5 | 7.8 | 0.00 | 0.00 | 0.00 | 86 | 1011.3 |
| 20260904104548 | 79 | 180 | 1.7 | 7.8 | 0.00 | 0.00 | 0.00 | 86 | 1011.2 |
| 20260904103047 | 79 | 126 | 1.7 | 7.0 | 0.00 | 0.00 | 0.00 | 86 | 1011.0 |
| 20260904101545 | 79 | 144 | 1.7 | 4.3 | 0.00 | 0.00 | 0.00 | 86 | 1011.1 |
| 20260904100047 | 79 | 163 | 1.7 | 3.5 | 0.00 | 0.00 | 0.00 | 85 | 1011.0 |
| 20260904094544 | 79 | 136 | 1.7 | 6.1 | 0.00 | 0.00 | 0.00 | 85 | 1010.8 |
| 20260904093043 | 79 | 165 | 2.6 | 6.1 | 0.00 | 0.00 | 0.00 | 84 | 1010.8 |
| 20260904091542 | 80 | 156 | 1.7 | 7.0 | 0.00 | 0.00 | 0.00 | 84 | 1010.8 |
| 20260904090040 | 80 | 162 | 2.6 | 7.0 | 0.00 | 0.00 | 0.00 | 84 | 1010.9 |
| 20260904084540 | 80 | 155 | 1.7 | 6.1 | 0.00 | 0.00 | 0.00 | 84 | 1010.9 |
| 20260904083041 | 80 | 163 | 1.7 | 7.0 | 0.00 | 0.00 | 0.00 | 84 | 1010.8 |
| 20260904081548 | 80 | 143 | 6.1 | 9.6 | 0.00 | 0.00 | 0.00 | 84 | 1011.0 |
| 20260904080040 | 80 | 125 | 1.7 | 9.6 | 0.00 | 0.00 | 0.00 | 83 | 1011.0 |
| 20260904074539 | 80 | 217 | 3.5 | 7.8 | 0.00 | 0.00 | 0.00 | 83 | 1010.9 |
| 20260904073035 | 80 | 147 | 3.5 | 10.4 | 0.00 | 0.00 | 0.00 | 83 | 1010.9 |
| 20260904071534 | 80 | 132 | 3.5 | 7.8 | 0.00 | 0.00 | 0.00 | 83 | 1011.0 |
| 20260904070033 | 80 | 158 | 1.7 | 7.0 | 0.00 | 0.00 | 0.00 | 83 | 1011.2 |
| 20260904064531 | 80 | 177 | 3.5 | 7.8 | 0.00 | 0.00 | 0.00 | 83 | 1011.3 |
| 20260904063033 | 80 | 175 | 2.6 | 8.7 | 0.00 | 0.00 | 0.00 | 82 | 1011.2 |
| 20260904061540 | 80 | 119 | 3.5 | 9.6 | 0.00 | 0.00 | 0.00 | 82 | 1011.1 |
| 20260904060028 | 80 | 153 | 2.6 | 8.7 | 0.00 | 0.00 | 0.00 | 82 | 1011.2 |
| 20260904054628 | 80 | 192 | 4.3 | 8.7 | 0.00 | 0.00 | 0.00 | 82 | 1011.0 |
| 20260904053025 | 80 | 145 | 3.5 | 8.7 | 0.00 | 0.00 | 0.00 | 82 | 1011.1 |
| 20260904051523 | 80 | 150 | 4.3 | 8.7 | 0.00 | 0.00 | 0.00 | 82 | 1011.0 |
| 20260904050020 | 80 | 134 | 2.6 | 9.6 | 0.00 | 0.00 | 0.00 | 81 | 1010.9 |
| 20260904044534 | 80 | 154 | 3.5 | 9.6 | 0.00 | 0.00 | 0.00 | 81 | 1010.9 |
| 20260904043028 | 80 | 167 | 5.2 | 9.6 | 0.00 | 0.00 | 0.00 | 80 | 1010.8 |
| 20260904041521 | 80 | 129 | 2.6 | 9.6 | 0.00 | 0.00 | 0.00 | 79 | 1010.9 |
| 20260904040017 | 81 | 131 | 4.3 | 9.6 | 0.00 | 0.00 | 0.00 | 78 | 1011.0 |
| 20260904034516 | 81 | 126 | 3.5 | 7.8 | 0.00 | 0.00 | 0.00 | 77 | 1010.8 |
| 20260904033115 | 81 | 144 | 3.5 | 9.6 | 0.00 | 0.00 | 0.00 | 76 | 1010.8 |
| 20260904031515 | 81 | 138 | 4.3 | 11.3 | 0.00 | 0.00 | 0.00 | 75 | 1010.7 |
| 20260904030020 | 82 | 134 | 1.7 | 7.8 | 0.00 | 0.00 | 0.00 | 74 | 1010.6 |
| 20260904024516 | 82 | 123 | 4.3 | 10.4 | 0.00 | 0.00 | 0.00 | 73 | 1010.4 |
| 20260904023013 | 82 | 175 | 5.2 | 12.2 | 0.00 | 0.00 | 0.00 | 72 | 1010.2 |
| 20260904021521 | 82 | 136 | 2.6 | 7.0 | 0.00 | 0.00 | 0.00 | 70 | 1010.2 |
| 20260904020012 | 83 | 132 | 2.6 | 7.8 | 0.00 | 0.00 | 0.00 | 70 | 1009.9 |
| 20260904014511 | 83 | 122 | 3.5 | 7.8 | 0.00 | 0.00 | 0.00 | 69 | 1009.6 |
| 20260904013011 | 83 | 144 | 4.3 | 9.6 | 0.00 | 0.00 | 0.00 | 69 | 1009.6 |
| 20260904011510 | 84 | 133 | 6.1 | 11.3 | 0.00 | 0.00 | 0.00 | 68 | 1009.6 |
| 20260904010010 | 84 | 141 | 4.3 | 11.3 | 0.00 | 0.00 | 0.00 | 68 | 1009.5 |
| 20260904004509 | 85 | 131 | 5.2 | 11.3 | 0.00 | 0.00 | 0.00 | 67 | 1009.3 |
| 20260904003008 | 86 | 102 | 6.1 | 10.4 | 0.00 | 0.00 | 0.00 | 66 | 1009.3 |
| 20260904001508 | 86 | 119 | 6.1 | 11.3 | 0.00 | 0.00 | 0.00 | 66 | 1009.2 |
| 20260904000007 | 87 | 115 | 6.1 | 15.6 | 0.00 | 0.00 | 0.00 | 66 | 1009.1 |
| 20260903234517 | 88 | 140 | 5.2 | 13.0 | 0.00 | 0.00 | 0.00 | 66 | 1009.0 |
| 20260903233005 | 89 | 93 | 7.0 | 13.9 | 0.00 | 0.00 | 0.00 | 64 | 1008.8 |
| 20260903231504 | 90 | 145 | 8.7 | 16.5 | 0.00 | 0.00 | 0.00 | 64 | 1008.8 |
| 20260903230008 | 91 | 126 | 7.0 | 13.9 | 0.00 | 0.00 | 0.00 | 64 | 1008.5 |
| 20260903224508 | 92 | 102 | 6.1 | 13.9 | 0.00 | 0.00 | 0.00 | 61 | 1008.4 |
| 20260903223002 | 93 | 138 | 5.2 | 15.6 | 0.00 | 0.00 | 0.00 | 58 | 1008.3 |
| 20260903221502 | 94 | 71 | 6.1 | 12.2 | 0.00 | 0.00 | 0.00 | 57 | 1008.3 |
| 20260903220120 | 95 | 92 | 7.0 | 13.0 | 0.00 | 0.00 | 0.00 | 55 | 1008.2 |
| 20260903214559 | 93 | 111 | 3.5 | 10.4 | 0.00 | 0.00 | 0.00 | 55 | 1008.3 |
| 20260903213157 | 94 | 132 | 5.2 | 12.2 | 0.00 | 0.00 | 0.00 | 55 | 1008.5 |
| 20260903211602 | 95 | 136 | 4.3 | 11.3 | 0.00 | 0.00 | 0.00 | 55 | 1008.5 |
| 20260903210105 | 94 | 98 | 5.2 | 12.2 | 0.00 | 0.00 | 0.00 | 55 | 1008.6 |
| 20260903204553 | 95 | 69 | 4.3 | 9.6 | 0.00 | 0.00 | 0.00 | 54 | 1008.7 |
| 20260903203050 | 95 | 136 | 4.3 | 9.6 | 0.00 | 0.00 | 0.00 | 54 | 1009.1 |
| 20260903201547 | 96 | 71 | 2.6 | 7.0 | 0.00 | 0.00 | 0.00 | 51 | 1009.4 |
| 20260903200044 | 95 | 153 | 2.6 | 6.1 | 0.00 | 0.00 | 0.00 | 55 | 1009.5 |
| 20260903194540 | 93 | 126 | 2.6 | 7.8 | 0.00 | 0.00 | 0.00 | 57 | 1009.7 |
| 20260903193036 | 92 | 47 | 2.6 | 6.1 | 0.00 | 0.00 | 0.00 | 57 | 1009.9 |
| 20260903191546 | 92 | 117 | 1.7 | 6.1 | 0.00 | 0.00 | 0.00 | 58 | 1010.1 |